Location: Complexul Astronomic Baia Mare
(47.6577°N, 23.5639°E)
Time: 06:50:42
(UTC+03:00)

ISS - Pass Details

Date: 12 May 2017
Orbit: 402 x 408 km, 51.6° (Epoch: 29 May)

Event Time Altitude Azimuth Distance (km) Brightness Sun altitude
Exits shadow 03:46:26 37° 168° (SSE) 653 -3.2 -16.7°
Maximum altitude 03:46:53 39° 146° (SE) 625 -3.1 -16.6°
Drops below altitude 10° 03:49:58 10° 76° (ENE) 1,464 -0.3 -16.3°
Sets 03:52:07 0° 68° (ENE) 2,325 1.1 -16.1°
